When you browse on this site, cookies collect data to enhance your experience and personalize the content and advertising you see.
Visit our Privacy Policy to learn more. By continuing to use the site, you agree to this use of cookies and data.
  • En España
  • Lista de países
  • Para 7 días
  • Temperatura del agua
  • Mapa Satelital
  • El tiempo en el mapa
  • Informadores
  • user-avatar
    Iniciar sesión

    Tiempo cada hora Salta

    Hoy, 18 Diciembre, Martes

    Tiempo Temperatura Precipitaciones Viento Presión Humedad
    00:00 +23°C° 0.5 mm 1 mps 650 mmHg 77%
    01:00 +23°C° 0.5 mm 1 mps 650 mmHg 78%
    02:00 +23°C° 0 mm 1 mps 650 mmHg 81%
    03:00 +21°C° 0.4 mm 2 mps 650 mmHg 82%
    04:00 +21°C° 0.4 mm 2 mps 650 mmHg 84%
    05:00 +21°C° 0.4 mm 2 mps 651 mmHg 85%
    06:00 +21°C° 0.7 mm 2 mps 651 mmHg 84%
    07:00 +21°C° 0.7 mm 2 mps 652 mmHg 82%
    08:00 +23°C° 0.7 mm 2 mps 652 mmHg 80%
    09:00 +23°C° 1.4 mm 2 mps 652 mmHg 81%
    10:00 +21°C° 1.4 mm 2 mps 652 mmHg 83%
    11:00 +21°C° 1.4 mm 2 mps 652 mmHg 84%
    12:00 +21°C° 2.4 mm 2 mps 651 mmHg 84%
    13:00 +21°C° 2.4 mm 2 mps 651 mmHg 85%
    14:00 +20°C° 2.4 mm 2 mps 651 mmHg 86%
    15:00 +20°C° 0.3 mm 2 mps 650 mmHg 85%
    16:00 +21°C° 0.3 mm 2 mps 650 mmHg 84%
    17:00 +21°C° 0.3 mm 2 mps 650 mmHg 83%
    18:00 +20°C° 0.3 mm 2 mps 651 mmHg 85%
    19:00 +21°C° 0.3 mm 1 mps 651 mmHg 86%
    20:00 +20°C° 0.3 mm 1 mps 651 mmHg 88%
    21:00 +20°C° 0 mm 1 mps 652 mmHg 87%
    22:00 +20°C° 0 mm 1 mps 652 mmHg 87%
    23:00 +18°C° 0 mm 0 mps 652 mmHg 87%

    Mañana, 19 Diciembre, Miércoles

    Tiempo Temperatura Precipitaciones Viento Presión Humedad
    00:00 +20°C° 0 mm 1 mps 652 mmHg 88%
    01:00 +19°C° 0 mm 1 mps 651 mmHg 89%
    02:00 +19°C° 0 mm 1 mps 651 mmHg 90%
    03:00 +19°C° 0 mm 1 mps 651 mmHg 90%
    04:00 +19°C° 0 mm 1 mps 651 mmHg 90%
    05:00 +19°C° 0 mm 1 mps 651 mmHg 90%
    06:00 +20°C° 0 mm 1 mps 651 mmHg 85%
    07:00 +21°C° 0 mm 1 mps 651 mmHg 80%
    08:00 +22°C° 0 mm 1 mps 651 mmHg 75%
    09:00 +24°C° 0 mm 1 mps 652 mmHg 69%
    10:00 +25°C° 0 mm 2 mps 652 mmHg 62%
    11:00 +27°C° 0 mm 2 mps 652 mmHg 56%
    12:00 +27°C° 0.1 mm 2 mps 651 mmHg 55%
    13:00 +28°C° 0.1 mm 3 mps 650 mmHg 55%
    14:00 +28°C° 0.1 mm 3 mps 650 mmHg 54%
    15:00 +27°C° 0.1 mm 3 mps 649 mmHg 57%
    16:00 +27°C° 0.1 mm 3 mps 649 mmHg 59%
    17:00 +27°C° 0.1 mm 3 mps 648 mmHg 62%
    18:00 +25°C° 0.1 mm 2 mps 648 mmHg 69%
    19:00 +24°C° 0.1 mm 2 mps 648 mmHg 76%
    20:00 +22°C° 0.1 mm 1 mps 648 mmHg 84%
    21:00 +22°C° 0.1 mm 1 mps 649 mmHg 84%
    22:00 +22°C° 0.1 mm 1 mps 649 mmHg 85%
    23:00 +21°C° 0.1 mm 1 mps 649 mmHg 86%

    Pasado mañana, 20 Diciembre, Jueves

    Tiempo Temperatura Precipitaciones Viento Presión Humedad
    00:00 +21°C° 0 mm 1 mps 649 mmHg 85%
    01:00 +21°C° 0 mm 1 mps 648 mmHg 85%
    02:00 +20°C° 0 mm 1 mps 647 mmHg 84%
    03:00 +20°C° 0 mm 1 mps 647 mmHg 82%
    04:00 +20°C° 0 mm 1 mps 647 mmHg 81%
    05:00 +20°C° 0 mm 1 mps 647 mmHg 79%
    06:00 +22°C° 0 mm 1 mps 648 mmHg 72%
    07:00 +23°C° 0 mm 1 mps 649 mmHg 65%
    08:00 +25°C° 0 mm 1 mps 649 mmHg 57%
    09:00 +27°C° 0.1 mm 1 mps 650 mmHg 52%
    10:00 +29°C° 0.1 mm 2 mps 650 mmHg 46%
    11:00 +31°C° 0.1 mm 2 mps 650 mmHg 40%
    12:00 +31°C° 0.5 mm 3 mps 650 mmHg 41%
    13:00 +31°C° 0.5 mm 3 mps 649 mmHg 41%
    14:00 +33°C° 0.5 mm 3 mps 649 mmHg 42%
    15:00 +31°C° 0.8 mm 3 mps 648 mmHg 45%
    16:00 +31°C° 0.8 mm 3 mps 648 mmHg 48%
    17:00 +30°C° 0.8 mm 4 mps 647 mmHg 50%
    18:00 +28°C° 0.9 mm 3 mps 647 mmHg 60%
    19:00 +26°C° 0.9 mm 2 mps 647 mmHg 70%
    20:00 +24°C° 0.9 mm 1 mps 647 mmHg 80%
    21:00 +23°C° 0.6 mm 1 mps 648 mmHg 81%
    22:00 +23°C° 0.6 mm 1 mps 648 mmHg 82%
    23:00 +23°C° 0.6 mm 1 mps 649 mmHg 83%

    21 Diciembre, Viernes

    Tiempo Temperatura Precipitaciones Viento Presión Humedad
    00:00 +22°C° 0.5 mm 1 mps 649 mmHg 83%
    01:00 +22°C° 0.5 mm 1 mps 648 mmHg 83%
    02:00 +22°C° 0.5 mm 1 mps 648 mmHg 83%
    03:00 +21°C° 0.8 mm 1 mps 649 mmHg 83%
    04:00 +20°C° 0.8 mm 2 mps 649 mmHg 82%
    05:00 +20°C° 0.8 mm 2 mps 649 mmHg 82%
    06:00 +21°C° 0.8 mm 2 mps 650 mmHg 79%
    07:00 +23°C° 0.8 mm 2 mps 651 mmHg 75%
    08:00 +23°C° 0.8 mm 2 mps 652 mmHg 71%
    09:00 +25°C° 0.1 mm 3 mps 652 mmHg 65%
    10:00 +26°C° 0.1 mm 3 mps 652 mmHg 59%
    11:00 +27°C° 0.1 mm 3 mps 652 mmHg 54%
    12:00 +27°C° 0.3 mm 3 mps 651 mmHg 56%
    13:00 +27°C° 0.3 mm 3 mps 650 mmHg 58%
    14:00 +27°C° 0.3 mm 3 mps 649 mmHg 60%
    15:00 +26°C° 0.5 mm 3 mps 649 mmHg 64%
    16:00 +26°C° 0.5 mm 3 mps 648 mmHg 68%
    17:00 +25°C° 0.5 mm 3 mps 648 mmHg 73%
    18:00 +24°C° 0.6 mm 2 mps 648 mmHg 78%
    19:00 +23°C° 0.6 mm 2 mps 649 mmHg 83%
    20:00 +22°C° 0.6 mm 1 mps 649 mmHg 88%
    21:00 +22°C° 0.4 mm 1 mps 650 mmHg 87%
    22:00 +21°C° 0.4 mm 1 mps 650 mmHg 87%
    23:00 +21°C° 0.4 mm 1 mps 651 mmHg 87%

    22 Diciembre, Sábado

    Tiempo Temperatura Precipitaciones Viento Presión Humedad
    00:00 +21°C° 0 mm 1 mps 650 mmHg 87%
    01:00 +21°C° 0 mm 1 mps 650 mmHg 87%
    02:00 +18°C° 0 mm 0 mps 650 mmHg 88%
    03:00 +18°C° 0 mm 0 mps 650 mmHg 88%
    04:00 +20°C° 0 mm 1 mps 650 mmHg 88%
    05:00 +20°C° 0 mm 1 mps 650 mmHg 88%
    06:00 +21°C° 0 mm 1 mps 651 mmHg 83%
    07:00 +22°C° 0 mm 1 mps 651 mmHg 78%
    08:00 +23°C° 0 mm 1 mps 652 mmHg 74%
    09:00 +24°C° 0.1 mm 2 mps 652 mmHg 69%
    10:00 +26°C° 0.1 mm 2 mps 652 mmHg 65%
    11:00 +27°C° 0.1 mm 2 mps 652 mmHg 61%
    12:00 +27°C° 0.2 mm 2 mps 652 mmHg 60%
    13:00 +27°C° 0.2 mm 2 mps 651 mmHg 59%
    14:00 +28°C° 0.2 mm 3 mps 650 mmHg 58%
    15:00 +27°C° 0.3 mm 3 mps 650 mmHg 60%
    16:00 +27°C° 0.3 mm 2 mps 650 mmHg 62%
    17:00 +26°C° 0.3 mm 2 mps 649 mmHg 64%
    18:00 +25°C° 0.4 mm 2 mps 649 mmHg 69%
    19:00 +24°C° 0.4 mm 1 mps 650 mmHg 74%
    20:00 +22°C° 0.4 mm 1 mps 650 mmHg 79%
    21:00 +22°C° 0.1 mm 1 mps 651 mmHg 80%
    22:00 +22°C° 0.1 mm 1 mps 651 mmHg 81%
    23:00 +21°C° 0.1 mm 1 mps 651 mmHg 81%

    23 Diciembre, Domingo

    Tiempo Temperatura Precipitaciones Viento Presión Humedad
    00:00 +21°C° 0 mm 1 mps 651 mmHg 81%
    01:00 +21°C° 0 mm 1 mps 651 mmHg 82%
    02:00 +20°C° 0 mm 1 mps 650 mmHg 82%
    03:00 +20°C° 0 mm 1 mps 651 mmHg 82%
    04:00 +20°C° 0 mm 1 mps 651 mmHg 83%
    05:00 +18°C° 0 mm 0 mps 651 mmHg 83%
    06:00 +21°C° 0 mm 1 mps 652 mmHg 78%
    07:00 +22°C° 0 mm 1 mps 652 mmHg 73%
    08:00 +23°C° 0 mm 1 mps 653 mmHg 69%
    09:00 +25°C° 0 mm 1 mps 653 mmHg 63%
    10:00 +27°C° 0 mm 1 mps 653 mmHg 58%
    11:00 +28°C° 0 mm 2 mps 654 mmHg 52%
    12:00 +29°C° 0.1 mm 2 mps 653 mmHg 51%
    13:00 +29°C° 0.1 mm 2 mps 652 mmHg 49%
    14:00 +30°C° 0.1 mm 3 mps 652 mmHg 47%
    15:00 +29°C° 0.4 mm 3 mps 651 mmHg 51%
    16:00 +28°C° 0.4 mm 3 mps 651 mmHg 55%
    17:00 +27°C° 0.4 mm 3 mps 650 mmHg 59%
    18:00 +26°C° 0.7 mm 2 mps 651 mmHg 64%
    19:00 +24°C° 0.7 mm 2 mps 651 mmHg 69%
    20:00 +23°C° 0.7 mm 1 mps 651 mmHg 74%
    21:00 +23°C° 0.5 mm 1 mps 652 mmHg 76%
    22:00 +22°C° 0.5 mm 1 mps 652 mmHg 79%
    23:00 +22°C° 0.5 mm 1 mps 652 mmHg 81%
    Mostrar más